Location: Olivenhain
(33.0462°N, 117.2348°W)
Time: 19:07:06
(UTC+00:00)

Delta 2 Rocket - Pass Details

Date: 27 June 2022
Orbit: 413 x 781 km, 35.6° (Epoch: 09 August)

Event Time Altitude Azimuth Distance (km) Brightness Sun altitude
Exits shadow 12:00:19 - 281° (WNW) 2,708 6.4 -8.3°
Reaches altitude 10° 12:02:21 10° 275° (W) 1,965 5.7 -8.0°
Maximum altitude 12:06:40 40° 205° (SSW) 966 4.2 -7.2°
Drops below altitude 10° 12:11:26 10° 136° (SE) 2,178 6.5 -6.4°
Sets 12:14:05 0° 130° (SE) 3,146 7.4 -5.9°
